Terug naar catalogus

STARLINK-31599

ActiefCommunicatieVLEO
NORAD 59327·PAYLOAD·🇺🇸 United States

Gelanceerd Mar 25, 2024 vanaf Cape Canaveral Space Force Station

Loading…

Volgende Passages (komende 24 uur)

TLE

VersSource: CelesTrak SupGP

Epoch: Sep 14, 2026, 20:48 UTC

1 59327C 24057H   26257.86715278  .00022572  00000+0  81763-3 0  2572
2 59327  42.9994 198.4811 0001397 262.6556 104.4163 15.27564406    19

Volg STARLINK-31599 in realtime met AllMySat

Download on the App Store